Погода в Понферраде

Испания     42°32′51″N   6°35′47″W
темп.,
°C
ветер,
м/с
пор.,
м/с
влажн.,
%
обл.,
%
осадки,
мм/ч
давл.,
гПа
погр.,
м
24 июня, чт
чт2423:00+10вюв23762 0.0 102358
02:00+8юв22800 0.0 102450
05:00+7юв22850 0.0 102447
08:00+8вюв12811 0.0 102479
11:00+15ссв11547 0.0 1022755
14:00+20с22410 0.0 10211540
17:00+21с223817 0.0 10201815
20:00+20св11446 0.0 10201124
25 июня, пт
пт2523:00+14юв33645 0.0 102346
02:00+12юв22670 0.0 102336
05:00+11юв22781 0.0 102232
08:00+12юв22775 0.0 102254
11:00+19ссв11515 0.0 1020787
14:00+23ссз233817 0.0 10181681
17:00+24сз333861 0.0 10161697
20:00+23сз234018 0.0 10151210
26 июня, сб
сб2623:00+16ююв11675 0.0 101713
02:00+14ю11764 0.0 101713
05:00+13юв117892 0.0 101612
08:00+14ю117439 0.0 101632
11:00+19зсз22555 0.0 1015627
14:00+23зсз3536100 0.0 10141636
17:00+23зсз5636100 0.0 10131618
20:00+19сз4655100 0.0 10131251
27 июня, вс
вс2723:00+14зсз2376100 0.0 1015193
02:00+12зсз3687100 0.1 1016601
05:00+11з2381100 0.0 1015269
08:00+10зсз249166 0.1 1015310
11:00+12зсз34630 0.1 1015904
14:00+16зсз56310 0.1 10141759
17:00+16зсз683625 0.0 10142144
20:00+13зсз685486 0.0 10161653
28 июня, пн
пн2823:00+9зсз36763 0.0 1019380
02:00+6з23914 0.0 102192
05:00+5з229429 0.0 102290
08:00+6з229157 0.0 1023242
11:00+11сз22635 0.0 1022614
14:00+16сз33503 0.0 10211156
17:00+19зсз45402 0.0 10201621
20:00+17зсз45460 0.0 10201177